Tracking 33831 objects as of 16-Apr-2026
HD Live streaming from Space Station
objects crossing your sky now

STARLINK-31848

Track STARLINK-31848 now!
10-day predictions
STARLINK-31848 is classified as:


NORAD ID: 59784
Int'l Code: 2024-093C
Perigee: 489.4 km
Apogee: 491.0 km
Inclination: 43.0 °
Period: 94.3 minutes
Semi major axis: 6861 km
RCS: Unknown
Launch date: May 18, 2024
Source: United States (US)
Launch site: AIR FORCE EASTERN TEST RANGE (AFETR)
Your satellite tracking list
Your tracking list is empty




NASA's NSSDC Master Catalog

Two Line Element Set (TLE):
1 59784U 24093C   26106.07739169 -.00000489  00000-0 -82423-5 0  9995
2 59784  43.0034 354.2720 0001180 276.1453  83.9264 15.27576168108458
Source of the keplerian elements: AFSPC